, AK

(GMT )
Valdez Airport

Weather History for PAVD - January, 2013

Change the Weather History Date:

Tuesday, January 1, 2013

  Actual Average Record
Temperature  
Mean Temperature 34 °F -  
Max Temperature 35 °F 27 °F 44 °F (2015)
Min Temperature 32 °F 18 °F 0 °F (2009)
Degree Days  
Heating Degree Days 32    
Moisture  
Dew Point 31 °F    
Average Humidity 91    
Maximum Humidity 100    
Minimum Humidity 81    
Precipitation  
Precipitation 0.76 in - - ()
Sea Level Pressure  
Sea Level Pressure 29.50 in    
Wind  
Wind Speed 0 mph (NNE)    
Max Wind Speed 8 mph    
Max Gust Speed 18 mph    
Visibility 2 miles    
Events      
Averages and records for this station are not official NWS values.
T = Trace of Precipitation, MM = Missing Value Source: NWS Daily Summary

Daily Weather History Graph

Daily Weather History Graph

Search for Another Location

Airport or City:

Astronomy

Jan. 01, 2013 Rise Set
Actual Time 9:57 AM AKST 3:40 PM AKST
Civil Twilight 8:57 AM AKST 4:40 PM AKST
Nautical Twilight 7:58 AM AKST 5:39 PM AKST
Astronomical Twilight 7:05 AM AKST 6:32 PM AKST
Moon 9:54 PM AKST (1/1) 10:48 AM AKST (1/1)
Length of Visible Light 7h 43m
Length of Day
5h 42m
Waning Gibbous, 82% of the Moon is Illuminated
Jan 1
Waning Gibbous
Jan 4
Last Quarter
Jan 11
New
Jan 18
First Quarter
Jan 26
Full

Hourly Weather History & Observations

Time (AKST) Temp. Windchill Dew Point Humidity Pressure Visibility Wind Dir Wind Speed Gust Speed Precip Events Conditions
12:16 AM 33.8 °F - 32.0 °F 93% 29.83 in 4.0 mi Calm Calm - 0.01 in   Overcast
12:36 AM 33.8 °F 30.8 °F 30.2 °F 87% 29.81 in 5.0 mi SSE 3.5 mph - 0.01 in   Mostly Cloudy
12:56 AM 33.8 °F - 30.2 °F 87% 29.81 in 3.0 mi Calm Calm - 0.02 in   Overcast
1:16 AM 32.0 °F - 30.2 °F 93% 29.80 in 2.5 mi Calm Calm - N/A   Overcast
1:36 AM 33.8 °F - 32.0 °F 93% 29.79 in 2.5 mi Calm Calm - N/A   Overcast
1:56 AM 33.8 °F - 30.2 °F 87% 29.77 in 1.5 mi Calm Calm - N/A   Overcast
2:16 AM 32.0 °F - 30.2 °F 93% 29.74 in 2.0 mi Calm Calm - N/A   Overcast
2:36 AM 33.8 °F - 30.2 °F 87% 29.74 in 1.5 mi Calm Calm - 0.01 in   Overcast
2:56 AM 33.8 °F - 30.2 °F 87% 29.71 in 2.0 mi Calm Calm - 0.01 in   Overcast
3:16 AM 33.8 °F - 30.2 °F 87% 29.70 in 3.0 mi Calm Calm - N/A   Overcast
3:36 AM 33.8 °F - 30.2 °F 87% 29.69 in 3.0 mi Calm Calm - N/A   Overcast
3:56 AM 33.8 °F - 30.2 °F 87% 29.69 in 5.0 mi Calm Calm - 0.01 in   Mostly Cloudy
4:16 AM 33.8 °F - 30.2 °F 87% 29.68 in 3.0 mi Calm Calm - 0.01 in   Overcast
4:36 AM 33.8 °F - 32.0 °F 93% 29.68 in 3.0 mi Calm Calm - 0.02 in   Overcast
4:56 AM 33.8 °F - 32.0 °F 93% 29.66 in 2.5 mi Calm Calm - 0.04 in   Overcast
5:16 AM 33.8 °F - 28.4 °F 81% 29.65 in 2.5 mi Calm Calm - 0.01 in   Overcast
5:36 AM 33.8 °F - 30.2 °F 87% 29.64 in 2.0 mi Calm Calm - 0.03 in   Overcast
5:56 AM 33.8 °F - 32.0 °F 93% 29.64 in 1.0 mi Calm Calm - N/A   Overcast
6:16 AM 32.0 °F - 32.0 °F 100% 29.62 in 1.0 mi Calm Calm - 0.03 in   Overcast
6:36 AM 33.8 °F - 30.2 °F 87% 29.62 in 1.0 mi Calm Calm - 0.06 in   Overcast
6:56 AM 33.8 °F - 30.2 °F 87% 29.60 in 1.0 mi Calm Calm - 0.09 in   Overcast
7:16 AM 33.8 °F - 30.2 °F 87% 29.60 in 1.0 mi Calm Calm - 0.01 in   Overcast
7:36 AM 32.0 °F - 30.2 °F 93% 29.59 in 1.0 mi Calm Calm - 0.03 in   Overcast
7:56 AM 32.0 °F - 30.2 °F 93% 29.58 in 1.0 mi Calm Calm - 0.06 in   Overcast
8:16 AM 32.0 °F - 30.2 °F 93% 29.57 in 1.0 mi Calm Calm - 0.02 in   Overcast
8:36 AM 32.0 °F - 28.4 °F 87% 29.55 in 1.0 mi Calm Calm - 0.04 in   Overcast
8:56 AM 32.0 °F - 30.2 °F 93% 29.54 in 0.8 mi Calm Calm - N/A   Overcast
9:16 AM 32.0 °F - 30.2 °F 93% 29.52 in 0.8 mi Calm Calm - 0.01 in   Overcast
9:36 AM 32.0 °F - 30.2 °F 93% 29.52 in 0.8 mi Calm Calm - 0.01 in   Overcast
9:56 AM 32.0 °F - 30.2 °F 93% 29.52 in 0.5 mi Calm Calm - 0.02 in   Overcast
10:16 AM 32.0 °F - 32.0 °F 100% 29.51 in 0.5 mi Calm Calm - N/A   Overcast
10:36 AM 32.0 °F - 30.2 °F 93% 29.51 in 0.5 mi Calm Calm - N/A   Overcast
10:56 AM 33.8 °F - 30.2 °F 87% 29.49 in 1.0 mi Calm Calm - 0.01 in   Overcast
11:16 AM 33.8 °F - 30.2 °F 87% 29.48 in 1.0 mi Calm Calm - N/A   Overcast
11:36 AM 33.8 °F - 32.0 °F 93% 29.46 in 1.0 mi Calm Calm - 0.01 in   Overcast
11:56 AM 33.8 °F - 32.0 °F 93% 29.46 in 3.0 mi Calm Calm - 0.02 in   Overcast
12:16 PM 32.0 °F - 32.0 °F 100% 29.44 in 3.0 mi Calm Calm - 0.01 in   Overcast
12:36 PM 32.0 °F - 30.2 °F 93% 29.43 in 3.0 mi Calm Calm - 0.02 in   Overcast
12:56 PM 32.0 °F - 32.0 °F 100% 29.42 in 5.0 mi Calm Calm - 0.03 in   Overcast
1:16 PM 32.0 °F - 30.2 °F 93% 29.41 in 5.0 mi Calm Calm - 0.02 in   Overcast
1:36 PM 32.0 °F - 30.2 °F 93% 29.40 in 5.0 mi Calm Calm - 0.04 in   Overcast
1:56 PM 33.8 °F - 30.2 °F 87% 29.38 in 4.0 mi Calm Calm - 0.05 in   Overcast
2:16 PM 32.0 °F - 32.0 °F 100% 29.38 in 4.0 mi Calm Calm - 0.01 in   Overcast
2:36 PM 32.0 °F - 32.0 °F 100% 29.36 in 4.0 mi Calm Calm - 0.02 in   Overcast
2:56 PM 32.0 °F - 30.2 °F 93% 29.35 in 1.0 mi Calm Calm - 0.04 in   Overcast
3:16 PM 32.0 °F - 30.2 °F 93% 29.33 in 1.0 mi Calm Calm - 0.01 in   Overcast
3:36 PM 32.0 °F - 30.2 °F 93% 29.32 in 1.0 mi Calm Calm - 0.02 in   Overcast
3:56 PM 32.0 °F - 30.2 °F 93% 29.30 in 0.5 mi Calm Calm - 0.03 in   Overcast
4:16 PM 32.0 °F - 30.2 °F 93% 29.30 in 0.5 mi Calm Calm - 0.01 in   Overcast
4:36 PM 32.0 °F - 28.4 °F 87% 29.29 in 0.5 mi Calm Calm - 0.02 in   Overcast
4:56 PM 32.0 °F - 30.2 °F 93% 29.28 in 0.2 mi Calm Calm - 0.03 in   Unknown
5:16 PM 32.0 °F - 30.2 °F 93% 29.28 in 0.2 mi Calm Calm - 0.01 in   Unknown
5:36 PM 33.8 °F - 30.2 °F 87% 29.27 in 0.2 mi Calm Calm - 0.03 in   Unknown
5:56 PM 32.0 °F - 28.4 °F 87% 29.27 in 1.0 mi Calm Calm - 0.05 in   Overcast
6:16 PM 32.0 °F - 30.2 °F 93% 29.27 in 1.0 mi Calm Calm - 0.02 in   Overcast
6:36 PM 32.0 °F - 30.2 °F 93% 29.27 in 1.0 mi Calm Calm - 0.05 in   Overcast
6:56 PM 33.8 °F - 32.0 °F 93% 29.27 in 0.5 mi Calm Calm - 0.07 in   Unknown
7:16 PM 33.8 °F - 33.8 °F 100% 29.29 in 0.5 mi Calm Calm - 0.03 in   Unknown
7:36 PM 33.8 °F 27.0 °F 33.8 °F 100% 29.31 in 0.5 mi West 8.1 mph 18.4 mph 0.05 in   Unknown
7:56 PM 35.6 °F 31.7 °F 30.2 °F 81% 29.34 in 3.0 mi North 4.6 mph - 0.07 in   Overcast
8:16 PM 33.8 °F - 30.2 °F 87% 29.36 in 3.0 mi Calm Calm - N/A   Overcast
8:36 PM 33.8 °F - 30.2 °F 87% 29.39 in 3.0 mi Calm Calm - N/A   Overcast
8:56 PM 33.8 °F - 32.0 °F 93% 29.40 in 4.0 mi Calm Calm - N/A   Overcast
9:16 PM 35.6 °F - 32.0 °F 87% 29.42 in 4.0 mi Calm Calm - N/A   Overcast
9:47 PM 33.8 °F - 30.2 °F 87% 29.43 in 4.0 mi Calm Calm - N/A   Overcast
10:16 PM 33.8 °F 30.8 °F 30.2 °F 87% 29.46 in 4.0 mi ENE 3.5 mph - N/A   Overcast
10:36 PM 33.8 °F - 33.8 °F 100% 29.46 in 5.0 mi Calm Calm - N/A   Overcast
10:56 PM 33.8 °F - 28.4 °F 81% 29.47 in 3.0 mi Calm Calm - N/A   Overcast
11:16 PM 33.8 °F - 30.2 °F 87% 29.47 in 7.0 mi Calm Calm - N/A   Overcast
11:36 PM 32.0 °F - 30.2 °F 93% 29.49 in 7.0 mi Calm Calm - N/A   Mostly Cloudy
11:56 PM 33.8 °F - 32.0 °F 93% 29.49 in 2.5 mi Calm Calm - 0.04 in   Overcast